Location: Huntsville
(41.2590°N, 111.7678°W)
Time: 07:25:34
(UTC+00:00)

Altair - Visible Passes

Search period start: 15 June 2021 00:00
Search period end: 25 June 2021 00:00
Orbit: 1501 x 1683 km, 47.2° (Epoch: 14 June)

Date Brightness Start Highest point End Pass type
(mag) Time Alt. Az. Time Alt. Az. Time Alt. Az.
15 Jun 7.8 03:54:05 10° WNW 04:04:02 71° SW 04:13:13 13° SE visible
15 Jun 8.8 06:00:14 10° W 06:07:40 24° SW 06:11:14 20° SSW visible
16 Jun 7.8 03:28:53 10° WNW 03:38:51 75° SSW 03:48:59 10° SE visible
16 Jun 8.8 05:34:47 10° WNW 05:42:36 26° SW 05:47:16 19° SSW visible
17 Jun 8.7 05:09:22 10° WNW 05:17:31 29° SW 05:23:22 17° S visible
18 Jun 8.6 04:43:59 10° WNW 04:52:25 32° SW 04:59:31 14° S visible
19 Jun 8.6 04:18:39 10° WNW 04:27:18 35° SW 04:35:43 11° S visible
20 Jun 8.5 03:53:19 10° WNW 04:02:11 38° SW 04:11:11 10° SSE visible
21 Jun 8.5 03:28:02 10° WNW 03:37:04 41° SW 03:46:16 10° SSE visible
23 Jun 9.5 04:46:55 10° WSW 04:49:49 12° WSW 04:52:45 10° SW visible
24 Jun 9.5 04:20:35 10° W 04:24:48 13° WSW 04:29:02 10° SSW visible
